[[{"header":{"parameterUnit":"m.s-1","parameterCategory":1,"la1":30.2991,"la2":30.254,"lo1":-89.0895,"lo2":-89.0444,"dy":0.0017,"dx":0.0017,"nx":28,"ny":28,"refTime":"2024-06-26T09:00:00:Z","depth":0,"parameterNumber":2,"parameterNumberName":"U-component_of_WINDS"},"data":[0,0,0,0,0,0,0,0,0,0,0,0,0,0,0,0,0,0,0,0,0,0,0,0,0,0,0,0,0,0,0,0,0,0,0,0,0,0,0,0,0,0,0,0,0,0,0,0,0,0,0,0,0,0,0,0,0,0,5.2134,5.2136,0,5.2327,5.2329,5.2331,5.225,5.2246,5.2241,5.2237,5.2438,5.2448,5.2457,0,0,0,0,0,0,0,0,0,0,0,0,0,5.17,5.1708,5.2134,5.2137,5.2139,5.2326,5.2329,5.2331,5.2251,5.2245,5.224,5.2235,5.2435,5.2447,5.2458,0,0,0,0,0,0,0,0,0,0,0,0,0,5.189,5.1711,5.2134,5.2121,5.2122,5.2326,5.2329,5.2332,5.2252,5.2245,5.2238,5.2232,5.2431,5.2445,5.246,5.2688,0,0,5.2504,5.251,0,0,0,0,0,0,0,0,5.188,5.1906,5.2121,5.2123,5.2124,5.2257,5.225,5.2452,5.2254,5.2203,5.2237,5.2229,5.2384,5.2402,5.2453,5.2698,5.2706,5.2505,5.2514,5.2521,5.2525,0,0,0,0,0,0,0,5.1867,5.1898,5.221,5.2124,5.2126,5.2107,5.2126,5.2288,5.233,5.2207,5.2202,5.2225,5.2384,5.244,5.2458,5.2709,5.2505,5.2518,5.2527,5.2533,5.3148,5.3155,0,0,0,0,0,0,5.1853,5.1887,5.2204,5.2216,5.1982,5.212,5.2142,5.2222,5.2328,5.2338,5.2231,5.2221,5.2418,5.2441,5.2464,5.2736,5.252,5.2534,5.2542,5.314,5.3149,5.3158,0,0,0,0,0,0,5.1844,5.1882,5.2196,5.205,5.2089,5.2135,5.2225,5.2229,5.2285,5.2346,5.2354,5.228,5.2414,5.2444,5.2632,5.2742,5.2541,5.2554,5.3131,5.3143,5.3154,5.3284,0,0,0,0,0,0,5.1832,5.1879,5.1966,5.2053,5.2097,5.2361,5.2232,5.2238,5.231,5.2298,5.2394,5.2404,5.2411,5.2611,5.2647,5.2759,5.2565,5.3122,5.3136,5.315,5.327,5.3299,5.3323,0,0,0,0,0,5.1816,5.1997,5.1971,5.2009,5.2206,5.2367,5.2393,5.2395,5.2319,5.2406,5.2445,5.2401,5.2725,5.2631,5.267,5.2789,5.3115,5.3132,5.3149,5.3258,5.3293,5.3322,0,0,0,0,0,0,5.1924,5.2008,5.198,5.2194,5.2274,5.2353,5.2464,5.2432,5.2537,5.2522,5.2522,5.2545,5.2739,5.2783,5.2677,5.3014,5.2908,5.2934,5.2978,5.3011,5.3037,5.3022,5.2577,0,0,0,0,0,5.1972,5.2095,5.2162,5.2344,5.2385,5.2418,5.2489,5.2483,5.2567,5.2601,5.2654,5.2738,5.2858,5.2937,5.3052,5.3276,5.3295,5.3377,5.3403,5.3425,5.3447,5.3566,5.3603,5.3214,5.3214,5.3214,0,0,5.2074,5.2135,5.2213,5.2367,5.2428,5.2556,5.2447,5.2587,5.2682,5.2623,5.2802,5.2844,5.2938,5.3144,5.3238,5.3187,5.3558,5.3447,5.3463,5.3474,5.3588,5.3625,5.3657,5.3226,5.3224,5.3222,0,0,5.2323,5.2382,5.2539,5.2602,5.2695,5.2715,5.2753,5.2837,5.2862,5.3042,5.3,5.3112,5.3321,5.3388,5.345,5.3722,5.3684,5.376,5.3897,5.4014,5.4044,5.4071,5.4167,5.4201,5.3782,5.3782,5.3782,0,5.2438,5.2627,5.2624,5.2766,5.2835,5.2785,5.2943,5.3005,5.3132,5.3181,5.3122,5.3379,5.3439,5.3659,5.3725,5.3778,5.382,5.3748,5.404,5.4067,5.4092,5.4183,5.4219,5.379,5.3789,5.3789,5.3788,0,5.2762,5.2894,5.3009,5.313,5.3212,5.3362,5.3382,5.3465,5.3453,5.3479,5.3662,5.3732,5.3858,5.391,5.3901,5.413,5.4094,5.4038,5.3931,5.4138,5.4223,5.4258,5.3802,5.3799,5.3797,5.3795,0,0,5.3086,5.3201,5.3243,5.3296,5.3394,5.3496,5.3644,5.3765,5.3835,5.3925,5.4047,5.4223,5.417,5.424,5.4238,5.4341,5.4549,5.4271,5.4273,5.4318,5.4802,5.4843,5.4883,5.4524,5.4531,5.4536,5.4794,0,5.3341,5.3596,5.3597,5.3834,5.3954,5.3908,5.4036,5.411,5.4139,5.4246,5.4277,5.4401,5.4323,5.4365,5.4464,5.4502,5.4646,5.4484,5.4638,5.4644,5.4614,5.4928,5.4972,5.5211,5.4827,5.4833,5.4837,0,5.3673,5.3769,5.4017,5.4094,5.4145,5.426,5.437,5.4473,5.4556,5.4569,5.4646,5.4627,5.4777,5.4667,5.4872,5.4762,5.4826,5.4854,5.4863,5.4876,5.4752,5.4948,5.5288,5.5323,5.489,5.4885,5.4882,0,5.3881,5.4073,5.4245,5.4292,5.4388,5.447,5.4514,5.459,5.4662,5.4758,5.4805,5.4919,5.4981,5.507,5.5082,5.5,5.5288,5.5179,5.5303,5.5302,5.5364,5.536,5.5717,5.5409,5.5408,5.5407,5.5407,0,5.4164,5.4317,5.4339,5.4445,5.4614,5.4614,5.4782,5.482,5.4887,5.5,5.4968,5.5074,5.5084,5.5194,5.5205,5.5372,5.5401,5.5416,5.5417,5.5418,5.5416,5.5458,5.5441,5.5417,5.5415,5.5413,5.5411,0,5.4425,5.4446,5.463,5.4705,5.4727,5.4849,5.4913,5.5014,5.5038,5.5181,5.5214,5.5253,5.538,5.5401,5.5552,5.5558,5.5758,5.5743,5.573,5.5727,5.5848,5.5836,5.6244,5.6297,5.5955,5.5959,5.5961,0,5.4604,5.472,5.4806,5.4878,5.4925,5.5042,5.5114,5.5119,5.5195,5.5297,5.5386,5.5509,5.5607,5.5813,5.5855,5.5969,5.5955,5.609,5.5972,5.5969,5.5955,5.5947,5.5957,5.6113,5.6117,5.612,5.6122,0,5.4919,5.4922,5.5027,5.5135,5.5222,5.5308,5.5389,5.545,5.5465,5.5553,5.5681,5.5757,5.5908,5.6031,5.6144,5.619,5.6159,5.6159,5.6193,5.6195,5.6181,5.6187,5.5789,5.6149,5.6147,5.6145,5.6143,5.6142,5.5143,5.5242,5.5317,5.5435,5.5495,5.5571,5.5669,5.5704,5.581,5.5932,5.5929,5.6069,5.6147,5.6295,5.6349,5.6459,5.6415,5.6466,5.6478,5.649,5.65,5.6165,5.648,5.6479,5.6478,5.6478,5.6477,0,5.5453,5.5499,5.5606,5.5719,5.5811,5.5772,5.5859,5.5939,5.6062,5.6137,5.6233,5.6379,5.6497,5.6548,5.6664,5.6742,5.673,5.6772,5.6765,5.6776,5.6534,5.6491,5.6779,5.6779,5.6779,5.6779,5.6779,5.6779,5.5626,5.5791,5.5804,5.5999,5.6043,5.6179,5.6232,5.6301,5.636,5.6524,5.6621,5.6652,5.6717,5.6837,5.6943,5.6955,5.6998,5.7046,5.7052,5.6824,5.6793,5.6764,5.6724,5.7056,5.7057,5.7284,5.7286,5.7288]},{"header":{"parameterUnit":"m.s-1","parameterCategory":1,"la1":30.2991,"la2":30.254,"lo1":-89.0895,"lo2":-89.0444,"dy":0.0017,"dx":0.0017,"nx":28,"ny":28,"refTime":"2024-06-26T09:00:00:Z","depth":0,"parameterNumber":3,"parameterNumberName":"V-component_of_WINDS"},"data":[0,0,0,0,0,0,0,0,0,0,0,0,0,0,0,0,0,0,0,0,0,0,0,0,0,0,0,0,0,0,0,0,0,0,0,0,0,0,0,0,0,0,0,0,0,0,0,0,0,0,0,0,0,0,0,0,0,0,2.113,2.1131,0,2.1213,2.1214,2.1215,2.1198,2.1196,2.1195,2.1193,2.1279,2.1282,2.1286,0,0,0,0,0,0,0,0,0,0,0,0,0,2.0956,2.0959,2.113,2.1131,2.1132,2.1213,2.1214,2.1216,2.1198,2.1196,2.1194,2.1193,2.1278,2.1282,2.1286,0,0,0,0,0,0,0,0,0,0,0,0,0,2.1034,2.096,2.113,2.1133,2.1135,2.1213,2.1214,2.1216,2.1198,2.1196,2.1194,2.1192,2.1276,2.1281,2.1287,2.1368,0,0,2.1304,2.1306,0,0,0,0,0,0,0,0,2.103,2.1041,2.1132,2.1133,2.1135,2.1193,2.1184,2.1267,2.1199,2.1174,2.1193,2.1191,2.1252,2.1259,2.128,2.1372,2.1375,2.1305,2.1308,2.131,2.1312,0,0,0,0,0,0,0,2.1025,2.1037,2.1163,2.1133,2.1135,2.113,2.1139,2.12,2.1225,2.1176,2.1175,2.1185,2.1252,2.1275,2.1282,2.1377,2.1304,2.1309,2.1313,2.1315,2.1536,2.1538,0,0,0,0,0,0,2.1018,2.1033,2.1161,2.1166,2.1076,2.1135,2.1145,2.1177,2.1224,2.1229,2.1187,2.1184,2.1266,2.1276,2.1285,2.1381,2.131,2.1315,2.1319,2.1533,2.1537,2.1539,0,0,0,0,0,0,2.1014,2.103,2.1157,2.1099,2.1115,2.1141,2.1176,2.1179,2.1202,2.1233,2.1237,2.1205,2.1265,2.1277,2.1347,2.1384,2.1318,2.1323,2.1531,2.1534,2.1538,2.1575,0,0,0,0,0,0,2.1009,2.1028,2.106,2.11,2.1118,2.1218,2.1179,2.1183,2.1211,2.1208,2.1251,2.1256,2.1264,2.1338,2.1352,2.139,2.1327,2.1527,2.1532,2.1537,2.157,2.1579,2.1587,0,0,0,0,0,2.1003,2.1067,2.1061,2.1077,2.1158,2.122,2.1231,2.1239,2.1215,2.1246,2.1265,2.1254,2.1378,2.1346,2.1361,2.1401,2.1525,2.1531,2.1536,2.1567,2.1578,2.1587,0,0,0,0,0,0,2.1031,2.1073,2.1067,2.1146,2.1179,2.1217,2.1257,2.1251,2.1292,2.1288,2.1296,2.1306,2.1376,2.1396,2.136,2.1481,2.1448,2.1457,2.1465,2.1476,2.1484,2.1478,2.1332,0,0,0,0,0,2.1047,2.1094,2.1128,2.1194,2.1211,2.1231,2.1259,2.1262,2.1297,2.1312,2.1336,2.1371,2.1417,2.1448,2.1493,2.1573,2.1581,2.1608,2.1616,2.1623,2.1631,2.1673,2.1685,2.1558,2.1558,2.1558,0,0,2.1079,2.1107,2.1137,2.12,2.1227,2.1275,2.1243,2.1297,2.1332,2.132,2.1387,2.1406,2.1445,2.152,2.1554,2.1539,2.1668,2.163,2.1636,2.164,2.168,2.1692,2.1703,2.1562,2.1561,2.1561,0,0,2.1162,2.1189,2.1246,2.1273,2.1314,2.1326,2.134,2.1379,2.1391,2.1458,2.1449,2.1491,2.1571,2.1599,2.1624,2.1716,2.1707,2.173,2.1773,2.1815,2.1825,2.1833,2.1865,2.1876,2.1737,2.1737,2.1738,0,2.1197,2.127,2.1277,2.133,2.1358,2.1348,2.1406,2.1432,2.1485,2.1504,2.1485,2.1584,2.161,2.169,2.1712,2.1733,2.1748,2.1725,2.1823,2.1832,2.184,2.187,2.1882,2.174,2.174,2.1739,2.1739,0,2.131,2.1361,2.1402,2.1453,2.1485,2.154,2.1555,2.1587,2.1587,2.1601,2.1668,2.1699,2.1748,2.1768,2.1769,2.1848,2.1837,2.182,2.1787,2.1854,2.1883,2.1894,2.1743,2.1743,2.1742,2.1741,0,0,2.1415,2.1467,2.1482,2.1504,2.1547,2.1586,2.164,2.1688,2.1715,2.1751,2.1796,2.1863,2.1848,2.1876,2.1879,2.1916,2.1984,2.1895,2.1896,2.1909,2.2072,2.2083,2.2096,2.1979,2.1981,2.1983,2.2068,0,2.1501,2.1597,2.1603,2.169,2.1735,2.1726,2.1773,2.1804,2.1818,2.1859,2.1875,2.1922,2.1898,2.1915,2.195,2.1969,2.2017,2.1963,2.202,2.2022,2.201,2.2111,2.2124,2.2203,2.2079,2.2081,2.2082,0,2.1615,2.1654,2.1744,2.1779,2.1798,2.1841,2.1884,2.1923,2.1958,2.1966,2.1996,2.1994,2.2049,2.2014,2.2088,2.2051,2.2075,2.2087,2.209,2.2096,2.2056,2.2118,2.2229,2.224,2.21,2.2099,2.2098,0,2.168,2.1755,2.1818,2.1838,2.1881,2.191,2.1929,2.1961,2.1989,2.2027,2.2045,2.2089,2.2113,2.2147,2.2157,2.213,2.2231,2.2197,2.2238,2.2238,2.2259,2.2258,2.2374,2.2276,2.2276,2.2276,2.2275,0,2.1775,2.1831,2.1848,2.1887,2.1948,2.1955,2.2016,2.2033,2.2061,2.2103,2.2098,2.2137,2.2147,2.2188,2.2196,2.2256,2.2267,2.2274,2.2276,2.2274,2.2273,2.229,2.2284,2.2279,2.2278,2.2277,2.2277,0,2.1859,2.1873,2.1941,2.1975,2.1985,2.2029,2.2058,2.2094,2.2107,2.216,2.2173,2.2193,2.2241,2.2253,2.2311,2.2316,2.2386,2.2383,2.2374,2.2374,2.2414,2.2409,2.2544,2.2561,2.2453,2.2454,2.2455,0,2.1918,2.1961,2.1999,2.2026,2.2046,2.209,2.2118,2.2127,2.2156,2.2197,2.2229,2.2275,2.2313,2.2389,2.2409,2.2452,2.2449,2.2493,2.2456,2.2452,2.2448,2.2445,2.2449,2.25,2.2501,2.2502,2.2503,0,2.2022,2.2026,2.2067,2.211,2.2143,2.2177,2.221,2.2232,2.2245,2.2278,2.2326,2.2355,2.2412,2.2458,2.2502,2.2521,2.2514,2.2515,2.2526,2.2525,2.2518,2.2521,2.2393,2.2512,2.2511,2.251,2.251,2.2509,2.2095,2.2131,2.2163,2.2208,2.2233,2.2263,2.2299,2.2316,2.2356,2.2403,2.2406,2.2458,2.2489,2.2547,2.2568,2.2608,2.2595,2.2612,2.2616,2.262,2.2623,2.2512,2.2616,2.2616,2.2616,2.2616,2.2615,0,2.2197,2.2217,2.2258,2.2303,2.2338,2.2328,2.2363,2.2393,2.2439,2.2469,2.2506,2.256,2.2604,2.2627,2.267,2.2698,2.2696,2.2709,2.2706,2.2711,2.2633,2.2618,2.271,2.271,2.271,2.271,2.271,2.271,2.2254,2.2315,2.2323,2.2395,2.2414,2.2465,2.2485,2.2513,2.2537,2.2598,2.2634,2.2648,2.2675,2.272,2.276,2.2765,2.2781,2.2796,2.2799,2.2726,2.2716,2.2707,2.2693,2.2799,2.2799,2.2873,2.2874,2.2875]}]]